Kankakee, IL

3:03 PM CST on December 06, 2019 (GMT -0600)
Greater Kankakee

Weather History for KIKK - October, 2019

Change the Weather History Date:

Tuesday, October 22, 2019

  Actual Average Record
Temperature  
Mean Temperature 48 °F -  
Max Temperature 55 °F 61 °F 84 °F (1979)
Min Temperature 41 °F 37 °F 23 °F (1976)
Degree Days  
Heating Degree Days 17    
Moisture  
Dew Point 38 °F    
Average Humidity 65    
Maximum Humidity 77    
Minimum Humidity 48    
Precipitation  
Precipitation 0.00 in - - ()
Sea Level Pressure  
Sea Level Pressure 29.72 in    
Wind  
Wind Speed 16 mph (WSW)    
Max Wind Speed 29 mph    
Max Gust Speed 37 mph    
Visibility 10 miles    
Events Rain    
Averages and records for this station are not official NWS values.
T = Trace of Precipitation, MM = Missing Value Source: NWS Daily Summary

Daily Weather History Graph

Daily Weather History Graph

Search for Another Location

Airport or City:

Astronomy

Oct. 22, 2019 Rise Set
Actual Time 7:10 AM CDT 6:00 PM CDT
Civil Twilight 6:42 AM CDT 6:28 PM CDT
Nautical Twilight 6:10 AM CDT 7:00 PM CDT
Astronomical Twilight 5:38 AM CDT 7:32 PM CDT
Moon 12:15 AM CDT (10/22) 3:13 PM CDT (10/22)
Length of Visible Light 11h 46m
Length of Day
10h 50m
Last Quarter, 37% of the Moon is Illuminated
Oct 22
Last Quarter
Oct 27
New
Nov 4
First Quarter
Nov 12
Full
Nov 19
Last Quarter

Hourly Weather History & Observations

Time (CDT) Temp. Windchill Dew Point Humidity Pressure Visibility Wind Dir Wind Speed Gust Speed Precip Events Conditions
12:15 AM 50.5 °F - 39.2 °F 65% 29.62 in 10.0 mi SSW 9.2 mph 17.3 mph N/A   Clear
12:35 AM 50.9 °F - 39.2 °F 64% 29.62 in 10.0 mi SSW 12.7 mph 18.4 mph N/A   Clear
12:55 AM 50.9 °F - 39.2 °F 64% 29.62 in 10.0 mi SSW 11.5 mph 18.4 mph N/A   Clear
1:15 AM 50.7 °F - 39.2 °F 65% 29.62 in 10.0 mi SSW 15.0 mph 20.7 mph N/A   Clear
1:35 AM 50.4 °F - 39.2 °F 66% 29.62 in 10.0 mi SSW 16.1 mph 20.7 mph N/A   Clear
1:55 AM 50.0 °F - 39.4 °F 67% 29.62 in 10.0 mi SSW 13.8 mph 19.6 mph N/A   Clear
2:15 AM 49.3 °F - 39.4 °F 69% 29.61 in 10.0 mi SSW 12.7 mph - N/A   Clear
2:35 AM 48.7 °F - 39.4 °F 70% 29.61 in 10.0 mi SSW 15.0 mph 18.4 mph N/A   Clear
2:55 AM 48.7 °F - 39.4 °F 70% 29.60 in 10.0 mi SSW 11.5 mph 19.6 mph N/A   Clear
3:15 AM 48.9 °F - 39.4 °F 70% 29.60 in 10.0 mi SSW 13.8 mph - N/A   Scattered Clouds
3:35 AM 49.5 °F - 39.4 °F 68% 29.60 in 10.0 mi SSW 16.1 mph 20.7 mph N/A   Mostly Cloudy
3:55 AM 49.1 °F - 39.4 °F 69% 29.60 in 10.0 mi SSW 16.1 mph 21.9 mph N/A   Mostly Cloudy
4:15 AM 49.1 °F - 39.2 °F 69% 29.60 in 10.0 mi SSW 17.3 mph 24.2 mph N/A   Scattered Clouds
4:35 AM 48.6 °F - 39.4 °F 71% 29.60 in 10.0 mi SW 16.1 mph 25.3 mph N/A   Scattered Clouds
4:55 AM 48.0 °F - 39.4 °F 72% 29.60 in 10.0 mi SSW 15.0 mph 20.7 mph N/A   Scattered Clouds
5:15 AM 47.3 °F - 39.4 °F 74% 29.60 in 10.0 mi SW 13.8 mph 20.7 mph N/A   Clear
5:35 AM 47.3 °F - 39.6 °F 74% 29.61 in 10.0 mi SW 15.0 mph 23.0 mph N/A   Scattered Clouds
5:55 AM 48.0 °F - 39.7 °F 73% 29.61 in 10.0 mi SW 15.0 mph 24.2 mph N/A   Mostly Cloudy
6:15 AM 47.7 °F - 39.7 °F 74% 29.61 in 10.0 mi SW 16.1 mph - N/A   Mostly Cloudy
6:35 AM 49.1 °F - 40.1 °F 71% 29.61 in 10.0 mi SW 18.4 mph 24.2 mph N/A   Overcast
6:55 AM 49.1 °F - 40.8 °F 73% 29.61 in 10.0 mi SW 16.1 mph 23.0 mph N/A Rain Light Rain
7:15 AM 48.9 °F - 40.3 °F 72% 29.62 in 10.0 mi WSW 23.0 mph 31.1 mph N/A   Overcast
7:35 AM 48.2 °F - 41.2 °F 77% 29.62 in 10.0 mi WSW 20.7 mph 27.6 mph N/A   Mostly Cloudy
7:55 AM 48.7 °F - 40.6 °F 74% 29.63 in 10.0 mi WSW 18.4 mph 24.2 mph N/A   Mostly Cloudy
8:15 AM 48.6 °F - 41.5 °F 77% 29.64 in 10.0 mi WSW 24.2 mph 28.8 mph N/A   Light Drizzle
8:35 AM 48.9 °F - 41.0 °F 74% 29.65 in 10.0 mi WSW 20.7 mph 25.3 mph N/A   Overcast
8:55 AM 49.5 °F - 40.8 °F 72% 29.66 in 10.0 mi WSW 19.6 mph 25.3 mph N/A   Overcast
9:15 AM 50.0 °F - 40.8 °F 71% 29.67 in 10.0 mi WSW 28.8 mph 33.4 mph N/A   Overcast
9:35 AM 50.7 °F - 41.5 °F 71% 29.67 in 10.0 mi WSW 24.2 mph 32.2 mph N/A   Overcast
9:55 AM 50.2 °F - 41.2 °F 71% 29.67 in 10.0 mi WSW 24.2 mph 31.1 mph N/A   Overcast
10:15 AM 50.0 °F - 40.6 °F 70% 29.68 in 10.0 mi WSW 28.8 mph 33.4 mph N/A   Overcast
10:35 AM 50.2 °F - 41.0 °F 71% 29.68 in 10.0 mi WSW 25.3 mph 32.2 mph N/A   Overcast
10:55 AM 51.1 °F - 41.4 °F 69% 29.69 in 10.0 mi WSW 26.5 mph 34.5 mph N/A   Overcast
11:15 AM 50.0 °F - 40.3 °F 69% 29.70 in 10.0 mi WSW 26.5 mph 32.2 mph N/A   Overcast
11:35 AM 51.3 °F - 40.1 °F 66% 29.71 in 10.0 mi WSW 27.6 mph 36.8 mph N/A   Overcast
11:55 AM 50.4 °F - 38.5 °F 64% 29.72 in 10.0 mi West 23.0 mph 31.1 mph N/A   Overcast
12:35 PM 49.6 °F - 37.9 °F 64% 29.73 in 10.0 mi WSW 26.5 mph 33.4 mph N/A   Overcast
12:55 PM 50.0 °F - 37.9 °F 63% 29.73 in 10.0 mi WSW 21.9 mph 29.9 mph N/A   Overcast
1:15 PM 50.0 °F - 35.4 °F 57% 29.73 in 10.0 mi West 26.5 mph 35.7 mph N/A   Overcast
1:35 PM 51.3 °F - 36.0 °F 56% 29.73 in 10.0 mi West 21.9 mph 29.9 mph N/A   Overcast
1:55 PM 51.8 °F - 36.5 °F 56% 29.73 in 10.0 mi West 24.2 mph 29.9 mph N/A   Overcast
2:15 PM 52.3 °F - 37.2 °F 56% 29.73 in 10.0 mi West 23.0 mph 32.2 mph N/A   Overcast
2:35 PM 52.9 °F - 37.4 °F 56% 29.73 in 10.0 mi WSW 19.6 mph 24.2 mph N/A   Overcast
2:55 PM 54.9 °F - 36.9 °F 51% 29.73 in 10.0 mi WSW 20.7 mph 29.9 mph N/A   Mostly Cloudy
3:15 PM 55.2 °F - 36.5 °F 49% 29.73 in 10.0 mi WSW 23.0 mph 35.7 mph N/A   Mostly Cloudy
3:35 PM 54.5 °F - 36.5 °F 51% 29.74 in 10.0 mi WSW 19.6 mph 26.5 mph N/A   Overcast
3:55 PM 54.5 °F - 36.1 °F 50% 29.75 in 10.0 mi West 23.0 mph 29.9 mph N/A   Overcast
4:15 PM 55.4 °F - 36.1 °F 48% 29.75 in 10.0 mi West 24.2 mph 34.5 mph N/A   Overcast
4:35 PM 54.0 °F - 36.5 °F 52% 29.76 in 10.0 mi West 19.6 mph 29.9 mph N/A   Scattered Clouds
4:55 PM 54.3 °F - 36.3 °F 51% 29.77 in 10.0 mi West 21.9 mph 32.2 mph N/A   Scattered Clouds
5:15 PM 53.6 °F - 37.2 °F 54% 29.78 in 10.0 mi West 18.4 mph 23.0 mph N/A   Clear
5:35 PM 52.7 °F - 36.9 °F 55% 29.78 in 10.0 mi West 11.5 mph - N/A   Scattered Clouds
5:55 PM 51.6 °F - 36.7 °F 57% 29.79 in 10.0 mi West 12.7 mph - N/A   Scattered Clouds
6:15 PM 50.4 °F - 37.0 °F 60% 29.80 in 10.0 mi WSW 9.2 mph 18.4 mph N/A   Scattered Clouds
6:35 PM 50.0 °F - 37.2 °F 62% 29.81 in 10.0 mi West 9.2 mph - N/A   Mostly Cloudy
6:55 PM 49.3 °F - 37.4 °F 64% 29.82 in 10.0 mi West 8.1 mph - N/A   Mostly Cloudy
7:15 PM 48.6 °F - 37.4 °F 65% 29.82 in 10.0 mi West 5.8 mph - N/A   Mostly Cloudy
7:35 PM 47.5 °F - 37.8 °F 69% 29.83 in 10.0 mi West 5.8 mph - N/A   Mostly Cloudy
7:55 PM 48.2 °F - 37.4 °F 66% 29.84 in 10.0 mi SW 4.6 mph - N/A   Mostly Cloudy
8:15 PM 47.3 °F - 37.4 °F 68% 29.84 in 10.0 mi SW 8.1 mph - N/A   Mostly Cloudy
8:35 PM 46.8 °F - 36.9 °F 68% 29.85 in 10.0 mi SW 10.4 mph - N/A   Overcast
8:55 PM 47.3 °F - 35.2 °F 63% 29.85 in 10.0 mi WSW 12.7 mph - N/A   Mostly Cloudy
9:15 PM 47.8 °F - 33.6 °F 58% 29.86 in 10.0 mi WSW 11.5 mph - N/A   Scattered Clouds
9:35 PM 46.4 °F 41.9 °F 33.3 °F 60% 29.87 in 10.0 mi WSW 9.2 mph - N/A   Clear
9:55 PM 45.0 °F 40.6 °F 33.4 °F 64% 29.87 in 10.0 mi SW 8.1 mph - N/A   Clear
10:15 PM 43.9 °F 39.3 °F 32.9 °F 65% 29.88 in 10.0 mi SW 8.1 mph - N/A   Clear
10:35 PM 44.1 °F 39.0 °F 32.4 °F 63% 29.88 in 10.0 mi SW 9.2 mph - N/A   Clear
10:55 PM 42.8 °F 37.0 °F 32.0 °F 66% 29.88 in 10.0 mi WSW 10.4 mph - N/A   Clear
11:15 PM 41.9 °F 36.3 °F 32.2 °F 68% 29.88 in 10.0 mi SW 9.2 mph - N/A   Clear
11:35 PM 42.1 °F 37.1 °F 32.0 °F 67% 29.88 in 10.0 mi SW 8.1 mph - N/A   Clear
11:55 PM 41.2 °F 36.0 °F 32.0 °F 70% 29.88 in 10.0 mi SW 8.1 mph - N/A   Clear